iso_date,epoch_date,Year,Hour,Min,DOY,POS_DOY,Lat,Lon,BP,Ts,Ta,has_bp,has_ts,has_ta,BuoyID,Buoy_Type,Buoy_Owner,Logistics,Hemisphere
2018-08-10T19:00:28Z,1533927629,2018,19,0,222.792,222.792,55.936,-18.014,-999.00,13.61,-999.0,no,yes,no,300234065316720,SVPGHI,AOML,WHOI,North
2018-08-10T19:59:31Z,1533931171,2018,20,0,222.833,222.833,55.937,-18.003,-999.00,13.6,-999.0,no,yes,no,300234065316720,SVPGHI,AOML,WHOI,North
2018-08-10T21:00:00Z,1533934800,2018,21,0,222.875,222.875,55.938,-17.991,-999.00,13.61,-999.0,no,yes,no,300234065316720,SVPGHI,AOML,WHOI,North
2018-08-10T22:00:28Z,1533938429,2018,22,0,222.917,222.917,55.938,-17.977,-999.00,13.6,-999.0,no,yes,no,300234065316720,SVPGHI,AOML,WHOI,North
2018-08-10T22:59:31Z,1533941971,2018,23,0,222.958,222.958,55.937,-17.963,-999.00,13.6,-999.0,no,yes,no,300234065316720,SVPGHI,AOML,WHOI,North
2018-08-11T00:00:00Z,1533945600,2018,0,0,223.0,223.0,55.934,-17.955,-999.00,13.6,-999.0,no,yes,no,300234065316720,SVPGHI,AOML,WHOI,North
2018-08-11T01:00:28Z,1533949229,2018,1,0,223.042,223.042,55.935,-17.947,-999.00,13.6,-999.0,no,yes,no,300234065316720,SVPGHI,AOML,WHOI,North
2018-08-11T01:59:31Z,1533952771,2018,2,0,223.083,223.083,55.935,-17.941,-999.00,13.6,-999.0,no,yes,no,300234065316720,SVPGHI,AOML,WHOI,North
2018-08-11T03:00:00Z,1533956400,2018,3,0,223.125,223.125,55.936,-17.938,-999.00,13.59,-999.0,no,yes,no,300234065316720,SVPGHI,AOML,WHOI,North
2018-08-11T04:00:28Z,1533960029,2018,4,0,223.167,223.167,55.944,-17.928,-999.00,13.59,-999.0,no,yes,no,300234065316720,SVPGHI,AOML,WHOI,North
2018-08-11T04:59:31Z,1533963571,2018,5,0,223.208,223.208,55.953,-17.921,-999.00,13.58,-999.0,no,yes,no,300234065316720,SVPGHI,AOML,WHOI,North
2018-08-11T06:00:00Z,1533967200,2018,6,0,223.25,223.25,55.961,-17.912,-999.00,13.58,-999.0,no,yes,no,300234065316720,SVPGHI,AOML,WHOI,North
2018-08-11T07:03:21Z,1533971002,2018,7,4,223.294,223.294,55.968,-17.897,-999.00,13.57,-999.0,no,yes,no,300234065316720,SVPGHI,AOML,WHOI,North
2018-08-11T07:59:31Z,1533974371,2018,8,0,223.333,223.333,55.974,-17.887,-999.00,13.57,-999.0,no,yes,no,300234065316720,SVPGHI,AOML,WHOI,North
2018-08-11T09:00:00Z,1533978000,2018,9,0,223.375,223.375,55.977,-17.876,-999.00,13.57,-999.0,no,yes,no,300234065316720,SVPGHI,AOML,WHOI,North
2018-08-11T10:00:28Z,1533981629,2018,10,0,223.417,223.417,55.977,-17.869,-999.00,13.56,-999.0,no,yes,no,300234065316720,SVPGHI,AOML,WHOI,North
2018-08-11T12:00:00Z,1533988800,2018,12,0,223.5,223.5,55.98,-17.854,-999.00,13.56,-999.0,no,yes,no,300234065316720,SVPGHI,AOML,WHOI,North
2018-08-11T13:00:28Z,1533992429,2018,13,1,223.542,223.542,55.984,-17.853,-999.00,13.57,-999.0,no,yes,no,300234065316720,SVPGHI,AOML,WHOI,North
2018-08-11T14:03:50Z,1533996230,2018,14,4,223.586,223.586,55.983,-17.849,-999.00,13.57,-999.0,no,yes,no,300234065316720,SVPGHI,AOML,WHOI,North
2018-08-11T15:00:00Z,1533999600,2018,15,0,223.625,223.625,55.988,-17.849,-999.00,13.57,-999.0,no,yes,no,300234065316720,SVPGHI,AOML,WHOI,North
2018-08-11T16:00:28Z,1534003229,2018,16,0,223.667,223.667,55.995,-17.85,-999.00,13.57,-999.0,no,yes,no,300234065316720,SVPGHI,AOML,WHOI,North
2018-08-11T16:59:31Z,1534006771,2018,17,0,223.708,223.708,56.004,-17.85,-999.00,13.57,-999.0,no,yes,no,300234065316720,SVPGHI,AOML,WHOI,North
2018-08-11T18:01:26Z,1534010486,2018,18,1,223.751,223.751,56.014,-17.848,-999.00,13.58,-999.0,no,yes,no,300234065316720,SVPGHI,AOML,WHOI,North
2018-08-11T19:00:28Z,1534014029,2018,19,0,223.792,223.792,56.023,-17.844,-999.00,13.58,-999.0,no,yes,no,300234065316720,SVPGHI,AOML,WHOI,North
2018-08-11T19:59:31Z,1534017571,2018,20,0,223.833,223.833,56.031,-17.835,-999.00,13.58,-999.0,no,yes,no,300234065316720,SVPGHI,AOML,WHOI,North
2018-08-11T21:04:19Z,1534021459,2018,21,4,223.878,223.878,56.036,-17.826,-999.00,13.58,-999.0,no,yes,no,300234065316720,SVPGHI,AOML,WHOI,North
2018-08-11T22:03:21Z,1534025002,2018,22,4,223.919,223.919,56.038,-17.815,-999.00,13.58,-999.0,no,yes,no,300234065316720,SVPGHI,AOML,WHOI,North
2018-08-11T22:59:31Z,1534028371,2018,23,0,223.958,223.958,56.038,-17.805,-999.00,13.58,-999.0,no,yes,no,300234065316720,SVPGHI,AOML,WHOI,North
2018-08-12T00:01:26Z,1534032086,2018,0,2,224.001,224.001,56.037,-17.796,-999.00,13.59,-999.0,no,yes,no,300234065316720,SVPGHI,AOML,WHOI,North
2018-08-12T01:00:28Z,1534035629,2018,1,0,224.042,224.042,56.036,-17.79,-999.00,13.59,-999.0,no,yes,no,300234065316720,SVPGHI,AOML,WHOI,North
2018-08-12T01:59:31Z,1534039171,2018,2,0,224.083,224.083,56.036,-17.785,-999.00,13.59,-999.0,no,yes,no,300234065316720,SVPGHI,AOML,WHOI,North
2018-08-12T03:00:00Z,1534042800,2018,3,0,224.125,224.125,56.036,-17.782,-999.00,13.59,-999.0,no,yes,no,300234065316720,SVPGHI,AOML,WHOI,North
2018-08-12T04:03:21Z,1534046602,2018,4,3,224.169,224.169,56.039,-17.781,-999.00,13.59,-999.0,no,yes,no,300234065316720,SVPGHI,AOML,WHOI,North
2018-08-12T04:59:31Z,1534049971,2018,5,0,224.208,224.208,56.042,-17.779,-999.00,13.59,-999.0,no,yes,no,300234065316720,SVPGHI,AOML,WHOI,North
2018-08-12T06:00:00Z,1534053600,2018,6,0,224.25,224.25,56.047,-17.776,-999.00,13.59,-999.0,no,yes,no,300234065316720,SVPGHI,AOML,WHOI,North
2018-08-12T07:00:28Z,1534057229,2018,7,0,224.292,224.292,56.052,-17.774,-999.00,13.59,-999.0,no,yes,no,300234065316720,SVPGHI,AOML,WHOI,North
2018-08-12T07:59:31Z,1534060771,2018,8,0,224.333,224.333,56.058,-17.771,-999.00,13.6,-999.0,no,yes,no,300234065316720,SVPGHI,AOML,WHOI,North
2018-08-12T09:00:00Z,1534064400,2018,9,0,224.375,224.375,56.064,-17.766,-999.00,13.61,-999.0,no,yes,no,300234065316720,SVPGHI,AOML,WHOI,North
2018-08-12T10:00:28Z,1534068029,2018,10,0,224.417,224.417,56.069,-17.759,-999.00,13.64,-999.0,no,yes,no,300234065316720,SVPGHI,AOML,WHOI,North
2018-08-12T10:59:31Z,1534071571,2018,11,0,224.458,224.458,56.072,-17.749,-999.00,13.66,-999.0,no,yes,no,300234065316720,SVPGHI,AOML,WHOI,North
2018-08-12T12:00:00Z,1534075200,2018,12,0,224.5,224.5,56.073,-17.737,-999.00,13.68,-999.0,no,yes,no,300234065316720,SVPGHI,AOML,WHOI,North
2018-08-12T13:00:28Z,1534078829,2018,13,0,224.542,224.542,56.074,-17.728,-999.00,13.71,-999.0,no,yes,no,300234065316720,SVPGHI,AOML,WHOI,North
2018-08-12T13:59:31Z,1534082371,2018,14,0,224.583,224.583,56.074,-17.72,-999.00,13.72,-999.0,no,yes,no,300234065316720,SVPGHI,AOML,WHOI,North
2018-08-12T15:00:00Z,1534086000,2018,15,0,224.625,224.625,56.074,-17.712,-999.00,13.72,-999.0,no,yes,no,300234065316720,SVPGHI,AOML,WHOI,North
2018-08-12T16:00:28Z,1534089629,2018,16,0,224.667,224.667,56.075,-17.707,-999.00,13.72,-999.0,no,yes,no,300234065316720,SVPGHI,AOML,WHOI,North
2018-08-12T16:59:31Z,1534093171,2018,17,0,224.708,224.708,56.078,-17.701,-999.00,13.72,-999.0,no,yes,no,300234065316720,SVPGHI,AOML,WHOI,North
2018-08-12T18:00:00Z,1534096800,2018,18,0,224.75,224.75,56.082,-17.697,-999.00,13.71,-999.0,no,yes,no,300234065316720,SVPGHI,AOML,WHOI,North
2018-08-12T19:00:28Z,1534100429,2018,19,0,224.792,224.792,56.085,-17.695,-999.00,13.7,-999.0,no,yes,no,300234065316720,SVPGHI,AOML,WHOI,North
2018-08-12T19:59:31Z,1534103971,2018,20,0,224.833,224.833,56.09,-17.692,-999.00,13.67,-999.0,no,yes,no,300234065316720,SVPGHI,AOML,WHOI,North
2018-08-12T21:00:00Z,1534107600,2018,21,0,224.875,224.875,56.094,-17.688,-999.00,13.66,-999.0,no,yes,no,300234065316720,SVPGHI,AOML,WHOI,North
2018-08-12T22:00:28Z,1534111229,2018,22,0,224.917,224.917,56.097,-17.685,-999.00,13.65,-999.0,no,yes,no,300234065316720,SVPGHI,AOML,WHOI,North
2018-08-12T22:59:31Z,1534114771,2018,23,0,224.958,224.958,56.099,-17.68,-999.00,13.64,-999.0,no,yes,no,300234065316720,SVPGHI,AOML,WHOI,North
2018-08-13T00:00:00Z,1534118400,2018,0,0,225.0,225.0,56.101,-17.676,-999.00,13.63,-999.0,no,yes,no,300234065316720,SVPGHI,AOML,WHOI,North
2018-08-13T01:00:28Z,1534122029,2018,1,0,225.042,225.042,56.103,-17.67,-999.00,13.63,-999.0,no,yes,no,300234065316720,SVPGHI,AOML,WHOI,North
2018-08-13T01:59:31Z,1534125571,2018,2,0,225.083,225.083,56.104,-17.662,-999.00,13.63,-999.0,no,yes,no,300234065316720,SVPGHI,AOML,WHOI,North
2018-08-13T03:00:00Z,1534129200,2018,3,0,225.125,225.125,56.106,-17.654,-999.00,13.62,-999.0,no,yes,no,300234065316720,SVPGHI,AOML,WHOI,North
2018-08-13T04:00:28Z,1534132829,2018,4,0,225.167,225.167,56.107,-17.646,-999.00,13.62,-999.0,no,yes,no,300234065316720,SVPGHI,AOML,WHOI,North
2018-08-13T04:59:31Z,1534136371,2018,5,0,225.208,225.208,56.11,-17.64,-999.00,13.62,-999.0,no,yes,no,300234065316720,SVPGHI,AOML,WHOI,North
2018-08-13T06:04:19Z,1534140259,2018,6,4,225.253,225.253,56.111,-17.637,-999.00,13.62,-999.0,no,yes,no,300234065316720,SVPGHI,AOML,WHOI,North
2018-08-13T07:03:21Z,1534143802,2018,7,3,225.294,225.294,56.115,-17.635,-999.00,13.62,-999.0,no,yes,no,300234065316720,SVPGHI,AOML,WHOI,North
2018-08-13T07:59:31Z,1534147171,2018,8,0,225.333,225.333,56.118,-17.635,-999.00,13.62,-999.0,no,yes,no,300234065316720,SVPGHI,AOML,WHOI,North
2018-08-13T09:00:00Z,1534150800,2018,9,0,225.375,225.375,56.123,-17.634,-999.00,13.62,-999.0,no,yes,no,300234065316720,SVPGHI,AOML,WHOI,North
2018-08-13T10:01:55Z,1534154515,2018,10,2,225.418,225.418,56.128,-17.629,-999.00,13.63,-999.0,no,yes,no,300234065316720,SVPGHI,AOML,WHOI,North
2018-08-13T10:59:31Z,1534157971,2018,11,0,225.458,225.458,56.131,-17.624,-999.00,13.63,-999.0,no,yes,no,300234065316720,SVPGHI,AOML,WHOI,North
2018-08-13T12:00:00Z,1534161600,2018,12,0,225.5,225.5,56.132,-17.617,-999.00,13.66,-999.0,no,yes,no,300234065316720,SVPGHI,AOML,WHOI,North
2018-08-13T13:00:28Z,1534165229,2018,13,0,225.542,225.542,56.132,-17.611,-999.00,13.66,-999.0,no,yes,no,300234065316720,SVPGHI,AOML,WHOI,North
2018-08-13T13:59:31Z,1534168771,2018,14,0,225.583,225.583,56.132,-17.605,-999.00,13.67,-999.0,no,yes,no,300234065316720,SVPGHI,AOML,WHOI,North
2018-08-13T15:00:00Z,1534172400,2018,15,0,225.625,225.625,56.131,-17.599,-999.00,13.69,-999.0,no,yes,no,300234065316720,SVPGHI,AOML,WHOI,North
2018-08-13T16:00:28Z,1534176029,2018,16,0,225.667,225.667,56.133,-17.593,-999.00,13.71,-999.0,no,yes,no,300234065316720,SVPGHI,AOML,WHOI,North
2018-08-13T16:59:31Z,1534179571,2018,17,0,225.708,225.708,56.136,-17.593,-999.00,13.68,-999.0,no,yes,no,300234065316720,SVPGHI,AOML,WHOI,North
2018-08-13T18:00:00Z,1534183200,2018,18,0,225.75,225.75,56.142,-17.591,-999.00,13.68,-999.0,no,yes,no,300234065316720,SVPGHI,AOML,WHOI,North
2018-08-13T19:00:28Z,1534186829,2018,19,0,225.792,225.792,56.148,-17.589,-999.00,13.68,-999.0,no,yes,no,300234065316720,SVPGHI,AOML,WHOI,North
2018-08-13T19:59:31Z,1534190371,2018,20,0,225.833,225.833,56.155,-17.585,-999.00,13.67,-999.0,no,yes,no,300234065316720,SVPGHI,AOML,WHOI,North
2018-08-13T21:00:00Z,1534194000,2018,21,0,225.875,225.875,56.162,-17.579,-999.00,13.66,-999.0,no,yes,no,300234065316720,SVPGHI,AOML,WHOI,North
2018-08-13T22:00:28Z,1534197629,2018,22,0,225.917,225.917,56.166,-17.574,-999.00,13.66,-999.0,no,yes,no,300234065316720,SVPGHI,AOML,WHOI,North
2018-08-13T22:59:31Z,1534201171,2018,23,0,225.958,225.958,56.167,-17.568,-999.00,13.65,-999.0,no,yes,no,300234065316720,SVPGHI,AOML,WHOI,North
2018-08-14T00:00:00Z,1534204800,2018,0,0,226.0,226.0,56.168,-17.561,-999.00,13.66,-999.0,no,yes,no,300234065316720,SVPGHI,AOML,WHOI,North
2018-08-14T01:00:28Z,1534208429,2018,1,0,226.042,226.042,56.166,-17.555,-999.00,13.65,-999.0,no,yes,no,300234065316720,SVPGHI,AOML,WHOI,North
2018-08-14T01:59:31Z,1534211971,2018,2,0,226.083,226.083,56.164,-17.55,-999.00,13.64,-999.0,no,yes,no,300234065316720,SVPGHI,AOML,WHOI,North
2018-08-14T03:00:00Z,1534215600,2018,3,0,226.125,226.125,56.162,-17.548,-999.00,13.63,-999.0,no,yes,no,300234065316720,SVPGHI,AOML,WHOI,North
2018-08-14T04:00:28Z,1534219229,2018,4,0,226.167,226.167,56.16,-17.545,-999.00,13.61,-999.0,no,yes,no,300234065316720,SVPGHI,AOML,WHOI,North
2018-08-14T04:59:31Z,1534222771,2018,5,0,226.208,226.208,56.162,-17.542,-999.00,13.57,-999.0,no,yes,no,300234065316720,SVPGHI,AOML,WHOI,North
2018-08-14T06:00:00Z,1534226400,2018,6,0,226.25,226.25,56.164,-17.544,-999.00,13.55,-999.0,no,yes,no,300234065316720,SVPGHI,AOML,WHOI,North
2018-08-14T07:00:28Z,1534230029,2018,7,0,226.292,226.292,56.163,-17.544,-999.00,13.51,-999.0,no,yes,no,300234065316720,SVPGHI,AOML,WHOI,North
2018-08-14T07:59:31Z,1534233571,2018,8,0,226.333,226.333,56.167,-17.544,-999.00,13.49,-999.0,no,yes,no,300234065316720,SVPGHI,AOML,WHOI,North
2018-08-14T09:00:00Z,1534237200,2018,9,0,226.375,226.375,56.171,-17.543,-999.00,13.48,-999.0,no,yes,no,300234065316720,SVPGHI,AOML,WHOI,North
2018-08-14T10:00:28Z,1534240829,2018,10,0,226.417,226.417,56.171,-17.542,-999.00,13.48,-999.0,no,yes,no,300234065316720,SVPGHI,AOML,WHOI,North
2018-08-14T10:59:31Z,1534244371,2018,11,0,226.458,226.458,56.172,-17.54,-999.00,13.46,-999.0,no,yes,no,300234065316720,SVPGHI,AOML,WHOI,North
2018-08-14T12:00:00Z,1534248000,2018,12,0,226.5,226.5,56.172,-17.541,-999.00,13.46,-999.0,no,yes,no,300234065316720,SVPGHI,AOML,WHOI,North
2018-08-14T13:03:21Z,1534251802,2018,13,4,226.544,226.544,56.172,-17.541,-999.00,13.45,-999.0,no,yes,no,300234065316720,SVPGHI,AOML,WHOI,North
2018-08-14T13:59:31Z,1534255171,2018,14,0,226.583,226.583,56.173,-17.543,-999.00,13.44,-999.0,no,yes,no,300234065316720,SVPGHI,AOML,WHOI,North
2018-08-14T15:00:00Z,1534258800,2018,15,0,226.625,226.625,56.174,-17.54,-999.00,13.44,-999.0,no,yes,no,300234065316720,SVPGHI,AOML,WHOI,North
2018-08-14T16:00:28Z,1534262429,2018,16,0,226.667,226.667,56.176,-17.534,-999.00,13.43,-999.0,no,yes,no,300234065316720,SVPGHI,AOML,WHOI,North
2018-08-14T16:59:31Z,1534265971,2018,17,0,226.708,226.708,56.179,-17.524,-999.00,13.41,-999.0,no,yes,no,300234065316720,SVPGHI,AOML,WHOI,North
2018-08-14T18:00:00Z,1534269600,2018,18,0,226.75,226.75,56.181,-17.515,-999.00,13.39,-999.0,no,yes,no,300234065316720,SVPGHI,AOML,WHOI,North
2018-08-14T19:03:21Z,1534273402,2018,19,4,226.794,226.794,56.183,-17.509,-999.00,13.36,-999.0,no,yes,no,300234065316720,SVPGHI,AOML,WHOI,North
2018-08-14T20:00:57Z,1534276858,2018,20,1,226.834,226.834,56.185,-17.5,-999.00,13.35,-999.0,no,yes,no,300234065316720,SVPGHI,AOML,WHOI,North
2018-08-14T21:01:26Z,1534280486,2018,21,1,226.876,226.876,56.185,-17.491,-999.00,13.34,-999.0,no,yes,no,300234065316720,SVPGHI,AOML,WHOI,North
2018-08-14T22:00:28Z,1534284029,2018,22,0,226.917,226.917,56.183,-17.487,-999.00,13.32,-999.0,no,yes,no,300234065316720,SVPGHI,AOML,WHOI,North
2018-08-14T22:59:31Z,1534287571,2018,23,0,226.958,226.958,56.181,-17.486,-999.00,13.3,-999.0,no,yes,no,300234065316720,SVPGHI,AOML,WHOI,North
2018-08-15T00:00:00Z,1534291200,2018,0,0,227.0,227.0,56.18,-17.486,-999.00,13.27,-999.0,no,yes,no,300234065316720,SVPGHI,AOML,WHOI,North
2018-08-15T01:00:28Z,1534294829,2018,1,0,227.042,227.042,56.178,-17.488,-999.00,13.26,-999.0,no,yes,no,300234065316720,SVPGHI,AOML,WHOI,North
2018-08-15T01:59:31Z,1534298371,2018,2,0,227.083,227.083,56.176,-17.49,-999.00,13.24,-999.0,no,yes,no,300234065316720,SVPGHI,AOML,WHOI,North
2018-08-15T03:00:00Z,1534302000,2018,3,0,227.125,227.125,56.175,-17.487,-999.00,13.21,-999.0,no,yes,no,300234065316720,SVPGHI,AOML,WHOI,North
2018-08-15T04:00:28Z,1534305629,2018,4,0,227.167,227.167,56.174,-17.482,-999.00,13.17,-999.0,no,yes,no,300234065316720,SVPGHI,AOML,WHOI,North
2018-08-15T04:59:31Z,1534309171,2018,5,0,227.208,227.208,56.175,-17.477,-999.00,13.12,-999.0,no,yes,no,300234065316720,SVPGHI,AOML,WHOI,North
2018-08-15T06:01:26Z,1534312886,2018,6,2,227.251,227.251,56.174,-17.473,-999.00,13.09,-999.0,no,yes,no,300234065316720,SVPGHI,AOML,WHOI,North
2018-08-15T07:00:28Z,1534316429,2018,7,0,227.292,227.292,56.173,-17.467,-999.00,13.07,-999.0,no,yes,no,300234065316720,SVPGHI,AOML,WHOI,North
2018-08-15T07:59:31Z,1534319971,2018,8,0,227.333,227.333,56.171,-17.462,-999.00,13.05,-999.0,no,yes,no,300234065316720,SVPGHI,AOML,WHOI,North
2018-08-15T09:00:00Z,1534323600,2018,9,0,227.375,227.375,56.169,-17.459,-999.00,13.04,-999.0,no,yes,no,300234065316720,SVPGHI,AOML,WHOI,North
2018-08-15T10:00:28Z,1534327229,2018,10,0,227.417,227.417,56.165,-17.459,-999.00,13.03,-999.0,no,yes,no,300234065316720,SVPGHI,AOML,WHOI,North
2018-08-15T10:59:31Z,1534330771,2018,11,0,227.458,227.458,56.162,-17.46,-999.00,13.01,-999.0,no,yes,no,300234065316720,SVPGHI,AOML,WHOI,North
2018-08-15T12:00:00Z,1534334400,2018,12,0,227.5,227.5,56.159,-17.467,-999.00,13.0,-999.0,no,yes,no,300234065316720,SVPGHI,AOML,WHOI,North
2018-08-15T13:03:21Z,1534338202,2018,13,4,227.544,227.544,56.157,-17.474,-999.00,13.01,-999.0,no,yes,no,300234065316720,SVPGHI,AOML,WHOI,North
2018-08-15T14:02:24Z,1534341744,2018,14,3,227.585,227.585,56.157,-17.477,-999.00,12.98,-999.0,no,yes,no,300234065316720,SVPGHI,AOML,WHOI,North
2018-08-15T15:00:00Z,1534345200,2018,15,0,227.625,227.625,56.16,-17.473,-999.00,12.96,-999.0,no,yes,no,300234065316720,SVPGHI,AOML,WHOI,North
2018-08-15T16:00:28Z,1534348829,2018,16,0,227.667,227.667,56.163,-17.466,-999.00,12.94,-999.0,no,yes,no,300234065316720,SVPGHI,AOML,WHOI,North
2018-08-15T16:59:31Z,1534352371,2018,17,0,227.708,227.708,56.165,-17.457,-999.00,12.94,-999.0,no,yes,no,300234065316720,SVPGHI,AOML,WHOI,North
2018-08-15T18:00:00Z,1534356000,2018,18,0,227.75,227.75,56.166,-17.443,-999.00,12.94,-999.0,no,yes,no,300234065316720,SVPGHI,AOML,WHOI,North
2018-08-15T20:03:50Z,1534363430,2018,20,4,227.836,227.836,56.163,-17.414,-999.00,12.91,-999.0,no,yes,no,300234065316720,SVPGHI,AOML,WHOI,North
2018-08-15T21:00:00Z,1534366800,2018,21,0,227.875,227.875,56.158,-17.403,-999.00,12.9,-999.0,no,yes,no,300234065316720,SVPGHI,AOML,WHOI,North
2018-08-15T22:00:28Z,1534370429,2018,22,0,227.917,227.917,56.149,-17.397,-999.00,12.89,-999.0,no,yes,no,300234065316720,SVPGHI,AOML,WHOI,North
2018-08-15T23:03:50Z,1534374230,2018,23,4,227.961,227.961,56.139,-17.4,-999.00,12.88,-999.0,no,yes,no,300234065316720,SVPGHI,AOML,WHOI,North
2018-08-16T00:01:26Z,1534377686,2018,0,2,228.001,228.001,56.131,-17.408,-999.00,12.86,-999.0,no,yes,no,300234065316720,SVPGHI,AOML,WHOI,North
2018-08-16T01:00:28Z,1534381229,2018,1,0,228.042,228.042,56.125,-17.421,-999.00,12.86,-999.0,no,yes,no,300234065316720,SVPGHI,AOML,WHOI,North
2018-08-16T01:59:31Z,1534384771,2018,2,0,228.083,228.083,56.121,-17.433,-999.00,12.85,-999.0,no,yes,no,300234065316720,SVPGHI,AOML,WHOI,North
2018-08-16T03:00:00Z,1534388400,2018,3,0,228.125,228.125,56.118,-17.442,-999.00,12.83,-999.0,no,yes,no,300234065316720,SVPGHI,AOML,WHOI,North
2018-08-16T04:00:28Z,1534392029,2018,4,0,228.167,228.167,56.118,-17.449,-999.00,12.83,-999.0,no,yes,no,300234065316720,SVPGHI,AOML,WHOI,North
2018-08-16T04:59:31Z,1534395571,2018,5,0,228.208,228.208,56.121,-17.45,-999.00,12.83,-999.0,no,yes,no,300234065316720,SVPGHI,AOML,WHOI,North
2018-08-16T06:00:00Z,1534399200,2018,6,0,228.25,228.25,56.121,-17.448,-999.00,12.82,-999.0,no,yes,no,300234065316720,SVPGHI,AOML,WHOI,North
2018-08-16T07:00:28Z,1534402829,2018,7,0,228.292,228.292,56.122,-17.444,-999.00,12.82,-999.0,no,yes,no,300234065316720,SVPGHI,AOML,WHOI,North
2018-08-16T07:59:31Z,1534406371,2018,8,0,228.333,228.333,56.122,-17.44,-999.00,12.82,-999.0,no,yes,no,300234065316720,SVPGHI,AOML,WHOI,North
2018-08-16T09:00:00Z,1534410000,2018,9,0,228.375,228.375,56.12,-17.435,-999.00,12.82,-999.0,no,yes,no,300234065316720,SVPGHI,AOML,WHOI,North
2018-08-16T10:03:21Z,1534413802,2018,10,4,228.419,228.419,-90.0,-180.0,-999.00,12.83,-999.0,no,yes,no,300234065316720,SVPGHI,AOML,WHOI,North
2018-08-16T11:03:50Z,1534417430,2018,11,4,228.461,228.461,-90.0,-180.0,-999.00,12.83,-999.0,no,yes,no,300234065316720,SVPGHI,AOML,WHOI,North
2018-08-16T12:04:19Z,1534421059,2018,12,4,228.503,228.503,56.104,-17.426,-999.00,12.83,-999.0,no,yes,no,300234065316720,SVPGHI,AOML,WHOI,North
2018-08-16T13:03:21Z,1534424602,2018,13,4,228.544,228.544,-90.0,-180.0,-999.00,12.84,-999.0,no,yes,no,300234065316720,SVPGHI,AOML,WHOI,North
2018-08-16T14:02:24Z,1534428144,2018,14,3,228.585,228.585,56.096,-17.439,-999.00,12.83,-999.0,no,yes,no,300234065316720,SVPGHI,AOML,WHOI,North
2018-08-16T15:00:00Z,1534431600,2018,15,0,228.625,228.625,56.093,-17.444,-999.00,12.83,-999.0,no,yes,no,300234065316720,SVPGHI,AOML,WHOI,North
2018-08-16T16:00:28Z,1534435229,2018,16,0,228.667,228.667,56.093,-17.444,-999.00,12.83,-999.0,no,yes,no,300234065316720,SVPGHI,AOML,WHOI,North
2018-08-16T16:59:31Z,1534438771,2018,17,0,228.708,228.708,56.095,-17.442,-999.00,12.82,-999.0,no,yes,no,300234065316720,SVPGHI,AOML,WHOI,North
2018-08-16T18:04:19Z,1534442659,2018,18,4,228.753,228.753,-90.0,-180.0,-999.00,12.82,-999.0,no,yes,no,300234065316720,SVPGHI,AOML,WHOI,North
2018-08-16T19:03:21Z,1534446202,2018,19,4,228.794,228.794,56.096,-17.429,-999.00,12.82,-999.0,no,yes,no,300234065316720,SVPGHI,AOML,WHOI,North
2018-08-16T19:59:31Z,1534449571,2018,20,0,228.833,228.833,56.098,-17.419,-999.00,12.81,-999.0,no,yes,no,300234065316720,SVPGHI,AOML,WHOI,North
2018-08-16T21:00:00Z,1534453200,2018,21,0,228.875,228.875,56.1,-17.411,-999.00,12.81,-999.0,no,yes,no,300234065316720,SVPGHI,AOML,WHOI,North
2018-08-16T22:03:21Z,1534457002,2018,22,4,228.919,228.919,56.101,-17.4,-999.00,12.81,-999.0,no,yes,no,300234065316720,SVPGHI,AOML,WHOI,North
2018-08-16T23:02:24Z,1534460544,2018,23,3,228.96,228.96,56.099,-17.392,-999.00,12.83,-999.0,no,yes,no,300234065316720,SVPGHI,AOML,WHOI,North
2018-08-17T00:00:00Z,1534464000,2018,0,0,229.0,229.0,56.097,-17.383,-999.00,12.83,-999.0,no,yes,no,300234065316720,SVPGHI,AOML,WHOI,North
2018-08-17T01:03:21Z,1534467802,2018,1,4,229.044,229.044,56.094,-17.376,-999.00,12.83,-999.0,no,yes,no,300234065316720,SVPGHI,AOML,WHOI,North
2018-08-17T01:59:31Z,1534471171,2018,2,0,229.083,229.083,56.089,-17.37,-999.00,12.82,-999.0,no,yes,no,300234065316720,SVPGHI,AOML,WHOI,North
2018-08-17T03:00:00Z,1534474800,2018,3,0,229.125,229.125,56.083,-17.366,-999.00,12.82,-999.0,no,yes,no,300234065316720,SVPGHI,AOML,WHOI,North
2018-08-17T04:00:28Z,1534478429,2018,4,0,229.167,229.167,56.077,-17.362,-999.00,12.82,-999.0,no,yes,no,300234065316720,SVPGHI,AOML,WHOI,North
2018-08-17T04:59:31Z,1534481971,2018,5,0,229.208,229.208,56.074,-17.357,-999.00,12.82,-999.0,no,yes,no,300234065316720,SVPGHI,AOML,WHOI,North
2018-08-17T06:00:00Z,1534485600,2018,6,0,229.25,229.25,56.067,-17.352,-999.00,12.83,-999.0,no,yes,no,300234065316720,SVPGHI,AOML,WHOI,North
2018-08-17T07:03:21Z,1534489402,2018,7,4,229.294,229.294,-90.0,-180.0,-999.00,12.84,-999.0,no,yes,no,300234065316720,SVPGHI,AOML,WHOI,North
2018-08-17T08:02:24Z,1534492944,2018,8,3,229.335,229.335,56.057,-17.35,-999.00,12.85,-999.0,no,yes,no,300234065316720,SVPGHI,AOML,WHOI,North
2018-08-17T09:00:00Z,1534496400,2018,9,0,229.375,229.375,56.055,-17.353,-999.00,12.86,-999.0,no,yes,no,300234065316720,SVPGHI,AOML,WHOI,North
2018-08-17T10:00:28Z,1534500029,2018,10,0,229.417,229.417,56.053,-17.353,-999.00,12.87,-999.0,no,yes,no,300234065316720,SVPGHI,AOML,WHOI,North
2018-08-17T10:59:31Z,1534503571,2018,11,0,229.458,229.458,56.052,-17.355,-999.00,12.89,-999.0,no,yes,no,300234065316720,SVPGHI,AOML,WHOI,North
2018-08-17T12:00:00Z,1534507200,2018,12,0,229.5,229.5,56.05,-17.353,-999.00,12.9,-999.0,no,yes,no,300234065316720,SVPGHI,AOML,WHOI,North
2018-08-17T13:00:28Z,1534510829,2018,13,0,229.542,229.542,56.049,-17.35,-999.00,12.92,-999.0,no,yes,no,300234065316720,SVPGHI,AOML,WHOI,North
2018-08-17T13:59:31Z,1534514371,2018,14,0,229.583,229.583,56.048,-17.345,-999.00,12.93,-999.0,no,yes,no,300234065316720,SVPGHI,AOML,WHOI,North
2018-08-17T15:00:00Z,1534518000,2018,15,0,229.625,229.625,56.046,-17.335,-999.00,12.94,-999.0,no,yes,no,300234065316720,SVPGHI,AOML,WHOI,North
2018-08-17T16:00:28Z,1534521629,2018,16,0,229.667,229.667,56.042,-17.326,-999.00,12.95,-999.0,no,yes,no,300234065316720,SVPGHI,AOML,WHOI,North
2018-08-17T16:59:31Z,1534525171,2018,17,0,229.708,229.708,56.038,-17.323,-999.00,12.95,-999.0,no,yes,no,300234065316720,SVPGHI,AOML,WHOI,North
2018-08-17T18:00:00Z,1534528800,2018,18,0,229.75,229.75,56.035,-17.312,-999.00,12.95,-999.0,no,yes,no,300234065316720,SVPGHI,AOML,WHOI,North
2018-08-17T19:00:28Z,1534532429,2018,19,0,229.792,229.792,56.031,-17.304,-999.00,12.96,-999.0,no,yes,no,300234065316720,SVPGHI,AOML,WHOI,North
2018-08-17T19:59:31Z,1534535971,2018,20,0,229.833,229.833,56.029,-17.296,-999.00,12.97,-999.0,no,yes,no,300234065316720,SVPGHI,AOML,WHOI,North